Location: Christian Reformed Church
(43.0975°N, 93.8113°W)
Time: 09:22:00
(UTC+00:00)

IRS-P3 - Pass Details

Date: 18 March 2026
Orbit: 810 x 816 km, 99.0° (Epoch: 20 April)

Event Time Altitude Azimuth Distance (km) Brightness Sun altitude
Rises 02:10:05 0° 223° (SW) 3,331 7.6 -19.8°
Reaches altitude 10° 02:15:03 10° 264° (W) 2,407 7.5 -20.7°
Maximum altitude 02:15:50 10° 273° (W) 2,388 7.6 -20.8°
Drops below altitude 10° 02:16:37 10° 281° (W) 2,410 7.7 -21.0°
Sets 02:21:37 0° 322° (NW) 3,349 8.3 -21.8°
